Location: East Moravia
(40.9278°N, 80.3684°W)
Time: 13:31:13
(UTC+00:00)

Daily predictions for brighter satellites

Satellite Brightness Start Highest point End
(mag) Time Altitude Azimuth Time Altitude Azimuth Time Altitude Azimuth
CENTAUR R/B 2.6 12:02:21 10° SW 12:08:11 58° NW 12:15:03 10° NNE
Cosmos 1975 3.1 12:05:24 10° S 12:09:22 72° E 12:13:20 10° NNE
CZ-4B R/B 3.8 22:20:25 10° S 22:25:43 65° WSW 22:31:10 10° NNW
Cosmos 1743 3.6 22:22:51 10° NNE 22:26:18 30° ENE 22:29:43 10° SE
Cosmos 1908 Rocket 3.5 22:22:38 10° N 22:27:01 78° E 22:31:21 10° S
Cosmos 407 Rocket 3.5 22:22:48 10° SSW 22:27:59 77° ESE 22:33:16 10° NNE
Lacrosse 5 2.6 22:24:30 10° SSW 22:29:10 38° SE 22:33:51 10° ENE
USA 267 3.8 22:23:45 10° E 22:29:41 38° NNE 22:35:37 10° NW
Cosmos 2242 Rocket 4.3 22:27:21 10° SSW 22:31:52 61° W 22:36:25 10° N
Cosmos 2278 Rocket 4.5 22:30:11 10° NW 22:35:00 29° WSW 22:39:47 10° SSW
SMAP 3.1 22:32:51 10° SSE 22:37:26 63° ENE 22:42:03 10° N
YAOGAN 1 4.3 22:35:33 10° E 22:37:32 13° ENE 22:39:31 10° NE
STARLINK-80 3.5 22:33:49 10° WSW 22:37:36 73° NW 22:41:20 10° NE
COSMO-SKYMED 1 3.9 22:34:36 10° NE 22:37:56 21° E 22:41:15 10° SE
Cosmos 921 Rocket 3.0 22:34:29 10° NNW 22:38:49 82° ENE 22:43:12 10° SSE
CORIOLIS 4.3 22:33:43 10° SSE 22:39:01 57° ENE 22:44:21 10° N
BREEZE-M R/B 4.0 22:34:09 10° WNW 22:39:16 31° N 22:41:59 12° ENE
Cosmos 2369 Rocket 2.9 22:38:30 10° N 22:43:24 30° NE 22:48:18 10° ESE
STARLINK-67 4.3 22:46:03 10° NNW 22:48:04 18° NNE 22:48:58 15° NE
Cosmos 1627 Rocket 4.4 22:42:06 10° S 22:48:12 83° E 22:54:23 10° N
SL-16 R/B 2.8 22:45:08 10° SW 22:50:43 58° WNW 22:56:22 10° NNE
Okean-O 2.8 22:48:01 10° SE 22:52:15 47° ENE 22:56:31 10° N
NOSS 7 (H) 4.4 22:50:24 10° SW 22:53:49 71° WNW 22:56:27 13° NNE
Centaur D-1A AC-31 3.5 22:52:13 10° SSW 22:54:55 18° SSE 22:59:50 10° ESE
Cosmos 2237 Rocket 4.3 22:52:49 10° WSW 22:57:07 22° NW 23:01:26 10° N
Cosmos 1943 Rocket 2.4 22:51:55 10° NNW 22:57:18 44° ENE 23:02:36 10° SE
Cosmos 1461 3.9 22:54:57 10° SSE 22:58:10 25° ESE 22:59:54 18° ENE
Cosmos 1603 4.0 22:52:55 10° S 22:58:22 47° ESE 23:03:38 11° NE
SL-4 R/B 3.2 22:55:39 10° NW 22:58:47 23° NNE 23:00:32 18° NE
STARLINK-45 4.4 22:56:11 10° SSW 22:59:50 34° SE 23:02:07 19° E
Cosmos 405 Rocket 3.4 22:57:47 10° NNE 23:01:05 29° ENE 23:04:25 10° SE
STARLINK-75 4.3 22:57:52 10° SSW 23:01:35 37° SE 23:03:52 20° ENE
Meteor 1-18 Rocket 4.2 22:56:39 10° S 23:02:20 82° E 23:07:57 10° NNE
COBE Rocket 4.1 22:57:45 10° N 23:02:25 68° WNW 23:07:10 10° SSW
EP 2 4.5 22:59:53 10° SSW 23:02:52 74° SE 23:04:46 21° NE
STARLINK-76 4.5 22:59:20 10° SSW 23:02:58 33° SE 23:05:02 20° E
Okean 1 3.4 23:00:22 10° SSW 23:04:20 77° W 23:08:19 10° N
STARLINK 4.4 23:00:56 10° SSW 23:04:35 34° SE 23:06:37 21° E
STARLINK-32 4.4 23:02:33 10° SSW 23:06:13 35° SE 23:08:12 22° E
ATLAS 5 CENTAUR R/B 3.4 23:05:33 10° WNW 23:06:34 12° NW 23:07:33 10° NNW
STARLINK-40 4.3 23:04:10 10° SSW 23:07:52 36° SE 23:09:48 23° E
YAOGAN 6 3.0 23:05:29 10° SE 23:08:49 39° ENE 23:12:13 10° N
STARLINK-44 4.3 23:05:47 10° SSW 23:09:31 38° SE 23:11:23 24° E
H-2A R/B 3.5 23:07:07 10° S 23:10:41 53° W 23:14:19 10° NNW
STARLINK-37 4.1 23:07:29 10° SSW 23:11:16 41° SE 23:13:07 25° E
NOAA 12 4.0 23:07:04 10° SSE 23:12:22 85° ENE 23:17:40 10° NNW
Cosmos 1655 Rocket 4.1 23:06:19 10° S 23:12:27 58° E 23:18:34 10° NNE
STARLINK-36 4.2 23:08:46 10° SSW 23:12:32 40° SE 23:14:17 25° E
FengYun 1-2 T 4.3 23:08:07 10° SSE 23:13:27 54° ENE 23:18:49 10° N
CSL-04 Rocket 4.2 23:09:21 10° SE 23:14:03 34° ENE 23:18:48 10° N
STARLINK-41 4.1 23:10:39 10° SSW 23:14:26 41° SE 23:16:07 27° E
STARLINK-64 4.1 23:12:17 10° SSW 23:16:05 43° SE 23:17:43 28° E
STARLINK-35 4.0 23:13:55 10° SSW 23:17:45 45° SE 23:19:20 29° E
Cosmos 2151 Rocket 3.9 23:13:40 10° N 23:17:52 41° ENE 23:22:00 10° SSE
STARLINK-51 3.9 23:15:33 10° SSW 23:19:24 47° SE 23:20:56 30° E
STARLINK-30 3.9 23:17:10 10° SSW 23:21:03 48° SE 23:22:32 32° E
Cosmos 1544 3.5 23:18:39 10° N 23:22:03 37° ENE 23:25:26 10° SSE
STARLINK-33 3.8 23:18:44 10° SSW 23:22:37 50° SE 23:24:02 33° E
Cosmos 1515 3.5 23:19:42 10° S 23:23:27 74° E 23:26:32 15° NNE
STARLINK-50 3.8 23:20:26 10° SSW 23:24:21 52° SE 23:25:42 35° E
STARLINK 3.9 23:21:54 10° SSW 23:25:46 48° SE 23:26:58 35° E
Aureole 3 Rocket 2.2 23:23:08 10° N 23:26:09 58° E 23:29:36 10° SSE
SKYMED 2 3.5 23:22:02 11° NNE 23:26:15 73° ESE 23:30:34 10° S
Meteor 2-4 Rocket 3.7 23:21:12 10° S 23:26:59 64° E 23:32:38 10° NNE
STARLINK-56 3.7 23:23:44 10° SW 23:27:39 56° SE 23:28:54 38° E
STARLINK-48 4.4 23:24:52 10° WSW 23:28:33 40° NNW 23:30:14 26° NNE
Cosmos 1867 4.3 23:23:32 10° NW 23:28:52 55° WSW 23:34:08 10° SSE
Starlink (trailer) 3.7 23:25:22 10° SW 23:29:18 58° SE 23:30:29 40° E
Cosmos 2084 Rocket 3.7 23:26:17 10° SSW 23:30:32 51° ESE 23:31:53 36° ENE
STARLINK-38 3.6 23:27:01 10° SW 23:30:59 60° SE 23:32:06 41° ENE
STARLINK-65 3.6 23:28:23 10° SW 23:32:20 62° SE 23:33:25 43° ENE
CZ-4 R/B 1.1 23:32:35 10° SSE 23:36:25 66° ENE 23:40:14 10° N
Cosmos 2266 Rocket 4.0 23:30:21 10° S 23:36:37 61° E 23:42:53 10° NNE
USA 116 4.3 23:33:24 16° NNE 23:37:24 60° E 23:42:01 10° S
STARLINK-69 3.5 23:33:37 10° SW 23:37:37 71° SE 23:38:31 50° ENE
CSL-04 Debris 4.2 23:33:29 10° SSE 23:38:48 58° ENE 23:44:07 10° N
Cosmos 405 3.8 23:35:30 10° SSE 23:37:58 35° SE 23:37:58 35° SE
S3M 3.9 23:32:43 10° N 23:38:55 83° E 23:45:02 10° S
STARLINK-66 3.5 23:35:13 10° SW 23:39:13 72° SE 23:40:03 52° ENE
USA 215 4.0 23:35:01 17° NNE 23:39:40 44° NNW 23:45:47 10° W
STARLINK-70 3.4 23:39:57 10° SW 23:43:57 79° SE 23:44:36 60° ENE
Okean 2 Rocket 3.5 23:39:30 10° NNW 23:43:58 64° W 23:48:26 10° S
BREEZE-M DEB (TANK) 2.0 23:40:35 10° WNW 23:44:01 58° N 23:44:01 58° N
GPS 2-05 Rocket1 4.0 23:42:40 10° WSW 23:44:43 25° SSW 23:44:43 25° SSW
Gbstr 26 Del rocket 4.1 23:38:12 10° WSW 23:45:32 78° NW 23:48:30 33° NE
Cosmos 1975 4.0 23:41:49 10° NNW 23:45:39 44° W 23:49:29 10° SSW
STARLINK-68 3.4 23:41:53 10° SW 23:45:54 86° SE 23:46:31 63° ENE
STARLINK-26 3.3 23:43:38 10° WSW 23:47:08 64° NW 23:47:24 61° N
STARLINK-58 3.4 23:43:28 10° SW 23:47:29 86° SE 23:48:01 66° ENE
Cosmos 1553 Rocket 4.5 23:41:53 10° NNW 23:48:12 64° W 23:54:31 10° S
STARLINK-62 3.4 23:45:11 10° SW 23:49:13 89° NNW 23:49:41 68° NE
STARLINK-63 3.4 23:46:46 10° SW 23:50:48 90° NNE 23:51:11 72° NE
IRIDIUM 104 4.2 23:47:24 10° S 23:52:37 86° E 23:57:52 10° N
STARLINK-72 3.4 23:49:59 10° SW 23:54:01 88° NW 23:54:15 79° NE
Abrixas rocket 4.2 23:53:19 10° WNW 23:54:57 20° NW 23:54:57 20° NW
